Location: LewisvilleTX
(33.0462°N, 96.9942°W)
Time: 02:38:08
(UTC+00:00)

ISS - Pass Details

Date: 13 September 2019
Orbit: 419 x 421 km, 51.6° (Epoch: 28 September)

Event Time Altitude Azimuth Distance (km) Brightness Sun altitude
Exits shadow 09:55:17 14° 20° (NNE) 1,307 -0.8 -28.0°
Drops below altitude 10° 09:57:40 10° 64° (ENE) 1,500 0.0 -27.5°
Enters shadow 11:00:18 -60° 308° (NW) 11,549 3.5 -15.2°
Maximum altitude 11:33:12 62° 226° (SW) 474 -3.7 -8.5°
